"Pseudo-MPEC" for C04RN45
Created 2021 Feb 24 8:07:05 UT using Find_Orb
Click here for an explanation of pseudo-MPECs
Astrometry: C04RN45 HC2021 02 13p/8)aTdqHYiu,)NunFFK@MW(H!_KKAZT$ubimd6`.sh]B4*mT1$]
V00 C04RN45 HC2021 02 13Y%]r*b4KwB*L^M?H)/b7]P
AstrometryN%eXrsiv0VGt`dbfa*p3
V00 C04RN45 HC2021 02 13hw-kpSqS^EX#X*vG[a$7.Rwr;=3yg!hdb3jX@;f$ax
redacted;[
V00 C04RN45 HC2021 02 13?)2@dsxU'QRTlpgk7h3PFcAbOy#M[v0GpN@o)!\Ul,w7we%ypYYb
V00 C04RN45 mC2021 02 13bT?5i;61N0X1nALTQ]w+-V+f1G(ef.'rDlFTsX?SL:ZZ2
clickR2
V00 C04RN45 mC2021 02 13JO=W_xJI55xCpp
hereAb=O5OoCc#\v/HF8?#wA!Hj\7YZ5OQ0lH`
V00 C04RN45 mC2021 02 13[w/$Sr
for[6Hj8n(XLZy'\DcMWxb-OsSQ34Nv9\HNLq?d?!Bk5vM
V00 C04RN45 mC2021 02 15qtjEQha^q4k!QwsgFG9=@#\v(ev/]py\GBw`mf+pge!e^h1`'(Z^
V00 C04RN45 mC2021 02 150^v4/3*cI,_FFR2QH=#?Uk*oLfP1*:o+6*nIh1rNpsN#_K9w)XRt
V00 C04RN45 mC2021 02 15G(RX3l'r]
explanatione@,.RY6,e%kk++B4cN.ZP/b(AOOIGfhB
V00 C04RN45 mC2021 02 15Lvt+3vkxV]Caheu+9]eDmNL4#U7%uZGHVu-CKyu'\rB$7=c+!OOn
V00 Station data: (V00) Kitt Peak-Bok (N31.963127 W111.600190) US/Arizona. Orbital elements: C04RN45 Perihelion 2021 Jun 21.138558 +/- 1.63282 TT = 3:19:31 (JD 2459386.638558) Epoch 2021 Feb 15.0 TT = JDT 2459260.5 Earth MOID: 0.0415 Ve: 0.0770 M 218.96023437 +/- 2.4076427 (J2000 ecliptic) AutoNEOCP n 1.11813364 +/- 0.00499138 Peri. 315.33991 +/- 1.2490805 a 0.91933453 +/- 0.00273585 Node 350.65376 +/- 0.5012815 e 0.3331858 +/- 0.0106718 Incl. 12.80244 +/- 0.3768759 P 0.88/321.96d H 24.5 G 0.15 U 9.2 q 0.61302530 +/- 0.011456 Q 1.22564375 +/- 0.00694796 From 11 observations 2021 Feb. 13-15; mean residual 0".13
Residuals in arcseconds: 210213 V00 .15- .24+ 210213 V00 .09+ .12- 210215 V00 .17- .08+ 210213 V00 .06+ .14- 210213 V00 .01- .09+ 210215 V00 .01- .07+ 210213 V00 .07- .12+ 210213 V00 .10- .00 210215 V00 .26+ .14- 210213 V00 .20+ .20- 210215 V00 .08- .01- Ephemerides (geocentric): Date (UTC) HH RA Dec delta r elong mag " sig PA ---- -- -- -- ------------- ----------- ------ ------ ----- --- ---- --- 2021 02 24 08 10 13 41.521 +36 47 10.71 .19027 1.1616 152.4 22.3 512 87 2021 02 24 09 10 13 22.113 +36 47 00.79 .19016 1.1615 152.4 22.3 517 87 2021 02 24 10 10 13 02.688 +36 46 50.55 .19006 1.1614 152.4 22.3 522 87 2021 02 24 11 10 12 43.244 +36 46 40.01 .18996 1.1613 152.3 22.3 527 87 2021 02 24 12 10 12 23.783 +36 46 29.16 .18986 1.1612 152.3 22.3 532 87 2021 02 24 13 10 12 04.304 +36 46 18.00 .18976 1.1610 152.3 22.3 537 87 2021 02 24 14 10 11 44.807 +36 46 06.53 .18966 1.1609 152.2 22.3 542 87 2021 02 24 15 10 11 25.293 +36 45 54.76 .18956 1.1608 152.2 22.3 547 87 2021 02 24 16 10 11 05.761 +36 45 42.67 .18945 1.1607 152.2 22.3 552 86 2021 02 24 17 10 10 46.212 +36 45 30.26 .18935 1.1605 152.2 22.3 557 86 2021 02 24 18 10 10 26.646 +36 45 17.55 .18926 1.1604 152.1 22.3 562 86 2021 02 24 19 10 10 07.063 +36 45 04.52 .18916 1.1603 152.1 22.3 567 86 2021 02 24 20 10 09 47.463 +36 44 51.19 .18906 1.1602 152.1 22.3 572 86 2021 02 24 21 10 09 27.846 +36 44 37.53 .18896 1.1601 152.0 22.3 578 86 2021 02 24 22 10 09 08.213 +36 44 23.56 .18886 1.1599 152.0 22.3 583 86 2021 02 24 23 10 08 48.563 +36 44 09.28 .18876 1.1598 152.0 22.3 588 86 2021 02 25 00 10 08 28.897 +36 43 54.68 .18867 1.1597 151.9 22.3 593 86 2021 02 25 01 10 08 09.215 +36 43 39.76 .18857 1.1596 151.9 22.3 599 86 2021 02 25 02 10 07 49.517 +36 43 24.53 .18847 1.1594 151.9 22.3 604 86 2021 02 25 03 10 07 29.802 +36 43 08.98 .18838 1.1593 151.8 22.3 609 86 2021 02 25 04 10 07 10.072 +36 42 53.11 .18828 1.1592 151.8 22.3 615 86 2021 02 25 05 10 06 50.326 +36 42 36.92 .18818 1.1591 151.8 22.3 620 86 2021 02 25 06 10 06 30.564 +36 42 20.41 .18809 1.1590 151.7 22.3 626 86 2021 02 25 07 10 06 10.787 +36 42 03.59 .18799 1.1588 151.7 22.3 631 86 2021 02 25 08 10 05 50.995 +36 41 46.44 .18790 1.1587 151.7 22.3 637 86 2021 02 25 09 10 05 31.187 +36 41 28.97 .18781 1.1586 151.6 22.3 642 85 2021 02 25 10 10 05 11.365 +36 41 11.18 .18771 1.1585 151.6 22.3 648 85 2021 02 25 11 10 04 51.527 +36 40 53.07 .18762 1.1583 151.6 22.3 653 85 2021 02 25 12 10 04 31.675 +36 40 34.63 .18753 1.1582 151.5 22.3 659 85 2021 02 25 13 10 04 11.808 +36 40 15.87 .18743 1.1581 151.5 22.3 664 85 2021 02 25 14 10 03 51.927 +36 39 56.79 .18734 1.1580 151.5 22.3 670 85 2021 02 25 15 10 03 32.031 +36 39 37.39 .18725 1.1578 151.4 22.3 676 85 2021 02 25 16 10 03 12.121 +36 39 17.66 .18716 1.1577 151.4 22.3 681 85 2021 02 25 17 10 02 52.197 +36 38 57.60 .18707 1.1576 151.3 22.3 687 85 2021 02 25 18 10 02 32.259 +36 38 37.22 .18697 1.1575 151.3 22.3 693 85 2021 02 25 19 10 02 12.307 +36 38 16.51 .18688 1.1573 151.3 22.3 699 85 2021 02 25 20 10 01 52.341 +36 37 55.47 .18679 1.1572 151.2 22.3 705 85 2021 02 25 21 10 01 32.362 +36 37 34.11 .18670 1.1571 151.2 22.3 710 85 2021 02 25 22 10 01 12.369 +36 37 12.42 .18661 1.1570 151.1 22.3 716 85 2021 02 25 23 10 00 52.363 +36 36 50.40 .18653 1.1568 151.1 22.3 722 85 2021 02 26 00 10 00 32.344 +36 36 28.06 .18644 1.1567 151.1 22.3 728 85 2021 02 26 01 10 00 12.312 +36 36 05.38 .18635 1.1566 151.0 22.3 734 85 2021 02 26 02 09 59 52.267 +36 35 42.38 .18626 1.1565 151.0 22.3 740 85 2021 02 26 03 09 59 32.209 +36 35 19.04 .18617 1.1563 150.9 22.3 746 84 2021 02 26 04 09 59 12.139 +36 34 55.37 .18609 1.1562 150.9 22.3 752 84 2021 02 26 05 09 58 52.057 +36 34 31.38 .18600 1.1561 150.9 22.3 758 84 2021 02 26 06 09 58 31.962 +36 34 07.05 .18591 1.1560 150.8 22.3 764 84 2021 02 26 07 09 58 11.854 +36 33 42.39 .18583 1.1558 150.8 22.3 770 84